GW0143 Weather Reports


time (UTC)temp
F
wind
direction
speed
knots
gust
knots
rain 1hr
in
rain 24hr
in
rain mn
in
humidity
%
barometer
mb
20260902161523 69 316 5.2 7.8 0.00 0.00 0.00 34 1028.3
20260902160517 68 279 5.2 8.7 0.00 0.00 0.00 34 1028.4
20260902155538 68 300 3.5 7.0 0.00 0.00 0.00 35 1028.4
20260902154537 68 259 7.0 10.4 0.00 0.00 0.00 35 1028.5
20260902153518 68 270 3.5 11.3 0.00 0.00 0.00 36 1028.6
20260902152521 68 263 1.7 2.6 0.00 0.00 0.00 36 1028.5
20260902151601 68 194 0.9 1.7 0.00 0.00 0.00 36 1028.6
20260902150521 67 190 1.7 2.6 0.00 0.00 0.00 37 1028.6
20260902145521 66 208 1.7 2.6 0.00 0.00 0.00 38 1028.7
20260902144522 65 175 2.6 3.5 0.00 0.00 0.00 40 1028.7
20260902143522 64 151 2.6 4.3 0.00 0.00 0.00 42 1028.8
20260902142519 63 142 3.5 5.2 0.00 0.00 0.00 44 1028.7
20260902141519 61 164 4.3 6.1 0.00 0.00 0.00 48 1028.7
20260902140520 60 145 5.2 7.0 0.00 0.00 0.00 51 1028.7
20260902135519 58 155 4.3 6.1 0.00 0.00 0.00 54 1028.7
20260902134540 57 147 4.3 6.1 0.00 0.00 0.00 56 1028.7
20260902133540 55 131 4.3 5.2 0.00 0.00 0.00 60 1028.7
20260902132520 53 155 6.1 7.8 0.00 0.00 0.00 63 1028.5
20260902131521 51 169 6.1 7.8 0.00 0.00 0.00 66 1028.5
20260902130521 51 155 4.3 7.8 0.00 0.00 0.00 66 1028.4
20260902125521 50 164 7.0 8.7 0.00 0.00 0.00 66 1028.2
20260902124521 48 150 6.1 7.8 0.00 0.00 0.00 69 1028.2
20260902123521 47 149 5.2 7.0 0.00 0.00 0.00 75 1028.3
20260902122542 47 159 3.5 5.2 0.00 0.00 0.00 75 1028.2
20260902121522 47 175 3.5 4.3 0.00 0.00 0.00 75 1028.2
20260902120521 47 149 4.3 5.2 0.00 0.00 0.00 73 1028.1
20260902115525 48 241 0.9 4.3 0.00 0.00 0.00 74 1028.0
20260902114605 48 30 0.9 3.5 0.00 0.00 0.00 74 1028.1
20260902113522 48 184 3.5 7.0 0.00 0.00 0.00 74 1027.9
20260902112516 48 175 3.5 5.2 0.00 0.00 0.00 74 1027.9
20260902111516 48 87 2.6 5.2 0.00 0.00 0.00 74 1027.8
20260902110525 50 60 3.5 4.3 0.00 0.00 0.00 73 1027.8
20260902105523 51 171 5.2 7.0 0.00 0.00 0.00 69 1027.7
20260902104517 51 144 4.3 5.2 0.00 0.00 0.00 69 1027.8
20260902103517 51 138 4.3 5.2 0.00 0.00 0.00 67 1027.7
20260902102518 51 141 5.2 6.1 0.00 0.00 0.00 70 1027.8
20260902101518 50 141 5.2 7.0 0.00 0.00 0.00 69 1027.8
20260902100547 51 139 3.5 4.3 0.00 0.00 0.00 72 1027.9
20260902095538 51 140 5.2 7.0 0.00 0.00 0.00 74 1027.9
20260902094538 52 135 4.3 5.2 0.00 0.00 0.00 73 1027.9
20260902093548 52 120 2.6 4.3 0.00 0.00 0.00 71 1027.9
20260902092527 53 91 2.6 3.5 0.00 0.00 0.00 72 1027.9
20260902091519 53 107 2.6 5.2 0.00 0.00 0.00 72 1027.9
20260902090519 54 71 3.5 5.2 0.00 0.00 0.00 71 1027.9
20260902085519 54 257 2.6 4.3 0.00 0.00 0.00 72 1027.8
20260902084519 54 209 5.2 7.8 0.00 0.00 0.00 72 1027.8
20260902083519 54 186 7.0 8.7 0.00 0.00 0.00 71 1027.8
20260902082519 55 156 5.2 7.8 0.00 0.00 0.00 71 1027.8
20260902081519 54 158 6.1 8.7 0.00 0.00 0.00 71 1028.0
20260902080529 53 174 1.7 3.5 0.00 0.00 0.00 74 1028.1
20260902075520 53 162 5.2 7.0 0.00 0.00 0.00 73 1027.9
20260902074520 54 158 3.5 4.3 0.00 0.00 0.00 72 1028.0
20260902073600 55 153 5.2 6.1 0.00 0.00 0.00 70 1028.0
20260902072540 55 165 5.2 7.0 0.00 0.00 0.00 69 1027.9
20260902071521 56 162 4.3 7.0 0.00 0.00 0.00 67 1028.0
20260902070541 56 178 6.1 8.7 0.00 0.00 0.00 65 1027.9
20260902065538 56 175 6.1 8.7 0.00 0.00 0.00 65 1028.0
20260902064521 56 167 6.1 8.7 0.00 0.00 0.00 67 1027.9
20260902063521 58 183 4.3 7.0 0.00 0.00 0.00 63 1027.9
20260902062522 57 226 4.3 6.1 0.00 0.00 0.00 62 1027.9
20260902061542 56 227 4.3 6.1 0.00 0.00 0.00 64 1027.9
20260902060522 55 190 5.2 7.0 0.00 0.00 0.00 69 1027.8
20260902055516 55 222 4.3 6.1 0.00 0.00 0.00 65 1027.9
20260902054516 52 176 4.3 6.1 0.00 0.00 0.00 73 1027.9
20260902053531 52 151 3.5 4.3 0.00 0.00 0.00 74 1027.9
20260902052523 53 138 3.5 5.2 0.00 0.00 0.00 73 1027.9
20260902051537 53 143 3.5 5.2 0.00 0.00 0.00 73 1028.0
20260902050517 55 106 2.6 3.5 0.00 0.00 0.00 68 1028.0
20260902045552 54 79 3.5 4.3 0.00 0.00 0.00 69 1028.1
20260902044532 56 146 2.6 3.5 0.00 0.00 0.00 68 1028.1
20260902043518 57 141 5.2 7.0 0.00 0.00 0.00 67 1028.1
20260902042516 58 129 2.6 3.5 0.00 0.00 0.00 64 1028.2
20260902041518 59 77 3.5 6.1 0.00 0.00 0.00 60 1028.2
20260902040518 59 87 3.5 6.1 0.00 0.00 0.00 61 1028.2
20260902035518 60 63 4.3 7.0 0.00 0.00 0.00 60 1028.1
20260902034519 60 61 4.3 7.0 0.00 0.00 0.00 56 1028.0
20260902033517 60 89 2.6 6.1 0.00 0.00 0.00 55 1027.9
20260902032537 59 66 4.3 6.1 0.00 0.00 0.00 56 1027.7
20260902031517 58 81 4.3 5.2 0.00 0.00 0.00 59 1027.9
20260902030518 58 92 1.7 3.5 0.00 0.00 0.00 61 1027.7
20260902025517 60 76 3.5 4.3 0.00 0.00 0.00 58 1027.5
20260902024518 61 83 2.6 3.5 0.00 0.00 0.00 55 1027.4
20260902023518 61 78 4.3 5.2 0.00 0.00 0.00 55 1027.3
20260902022518 62 46 2.6 3.5 0.00 0.00 0.00 53 1027.3
20260902021518 63 12 1.7 2.6 0.00 0.00 0.00 51 1027.2
20260902020518 64 344 1.7 2.6 0.00 0.00 0.00 50 1027.1
20260902015519 65 18 2.6 5.2 0.00 0.00 0.00 50 1027.0
20260902014518 66 30 6.1 10.4 0.00 0.00 0.00 48 1026.8
20260902013519 66 39 5.2 7.8 0.00 0.00 0.00 44 1026.7
20260902012520 66 6 1.7 3.5 0.00 0.00 0.00 47 1026.5
20260902011519 66 271 2.6 4.3 0.00 0.02 0.00 47 1026.4
20260902010519 67 243 3.5 6.1 0.00 0.02 0.00 45 1026.2
20260902005520 69 247 2.6 5.2 0.00 0.02 0.00 42 1026.3
20260902004520 69 252 4.3 6.1 0.00 0.02 0.00 40 1026.2
20260902003516 70 262 5.2 7.0 0.00 0.02 0.00 39 1026.2
20260902002539 72 264 6.1 8.7 0.00 0.02 0.00 38 1026.1
20260902001520 73 289 5.2 7.0 0.00 0.02 0.00 35 1026.1
20260902000541 71 284 5.2 7.8 0.00 0.02 0.00 38 1026.1
20260901235521 73 298 4.3 7.0 0.00 0.02 0.00 34 1026.0
20260901234517 74 305 5.2 7.8 0.00 0.02 0.00 31 1025.9
20260901233537 74 337 5.2 8.7 0.00 0.02 0.00 30 1025.8
20260901232517 74 61 4.3 7.8 0.00 0.02 0.00 33 1025.8
20260901231528 74 194 5.2 7.8 0.00 0.02 0.00 32 1026.0
20260901230518 74 246 4.3 7.0 0.00 0.02 0.00 30 1026.0
20260901225517 74 229 4.3 7.8 0.00 0.02 0.00 31 1026.0
20260901224518 74 214 5.2 9.6 0.00 0.02 0.00 31 1026.1
20260901223558 74 201 6.1 9.6 0.00 0.02 0.00 31 1026.2
20260901222518 74 227 5.2 9.6 0.00 0.02 0.00 30 1026.3
20260901221619 73 227 6.1 9.6 0.00 0.02 0.00 32 1026.5
20260901220518 73 240 2.6 6.1 0.00 0.02 0.00 29 1026.7
20260901215519 73 246 5.2 7.8 0.00 0.02 0.00 29 1026.8
20260901214545 73 295 4.3 6.1 0.00 0.02 0.00 28 1026.9
20260901213519 74 314 5.2 10.4 0.00 0.02 0.00 28 1027.0
20260901212536 73 292 5.2 8.7 0.00 0.02 0.00 28 1027.0
20260901211519 74 269 5.2 9.6 0.00 0.02 0.00 28 1026.9
20260901210520 74 314 4.3 8.7 0.00 0.02 0.00 27 1027.1
20260901205520 72 279 2.6 7.8 0.00 0.02 0.00 27 1027.2
20260901204519 72 329 1.7 4.3 0.00 0.02 0.00 28 1027.4
20260901203520 73 214 3.5 7.0 0.00 0.02 0.00 29 1027.5
20260901202518 73 268 6.1 9.6 0.00 0.02 0.00 29 1027.6
20260901201518 72 337 4.3 9.6 0.00 0.02 0.00 30 1027.7
20260901200521 72 30 3.5 7.8 0.00 0.02 0.00 30 1027.8
20260901195521 73 35 3.5 6.1 0.00 0.02 0.00 30 1028.0
20260901194518 73 25 4.3 8.7 0.00 0.02 0.00 32 1028.0
20260901193521 73 202 1.7 4.3 0.00 0.02 0.00 33 1028.0
20260901192519 72 218 6.1 11.3 0.00 0.02 0.00 33 1028.1
20260901191521 71 121 3.5 6.1 0.00 0.02 0.00 36 1028.4
20260901190518 71 186 6.1 11.3 0.00 0.02 0.00 37 1028.4
20260901185542 70 153 4.3 7.0 0.00 0.02 0.00 38 1028.6
20260901184522 69 197 2.6 5.2 0.00 0.02 0.00 39 1028.7
20260901183522 69 171 1.7 5.2 0.00 0.02 0.00 39 1028.8
20260901182516 68 63 2.6 4.3 0.00 0.02 0.00 42 1028.9
20260901181517 69 230 3.5 7.8 0.00 0.02 0.00 41 1028.9
20260901180543 68 179 1.7 6.1 0.00 0.02 0.00 41 1029.1
20260901175523 66 218 3.5 7.8 0.00 0.02 0.00 44 1029.0
20260901174517 66 220 5.2 8.7 0.00 0.02 0.00 45 1029.1
20260901173517 67 235 5.2 8.7 0.00 0.02 0.00 46 1029.1
20260901172518 69 237 6.1 9.6 0.00 0.02 0.00 44 1029.2
20260901171518 68 230 6.1 10.4 0.00 0.02 0.00 45 1029.3
20260901170538 69 231 7.0 10.4 0.00 0.02 0.00 44 1029.3
20260901165518 68 235 6.1 11.3 0.00 0.02 0.00 46 1029.3
20260901164518 68 230 6.1 10.4 0.00 0.02 0.00 47 1029.4
20260901163518 67 212 7.8 12.2 0.00 0.02 0.00 49 1029.4
20260901162519 66 223 7.0 11.3 0.00 0.02 0.00 51 1029.4